Oscoda, MI

1:19 AM EDT on September 20, 2019 (GMT -0400)
Oscoda-Wurtsmith

Weather History for KOSC - August, 2019

Change the Weather History Date:

Sunday, August 25, 2019

  Actual Average Record
Temperature  
Mean Temperature 60 °F -  
Max Temperature 73 °F 74 °F 89 °F (2013)
Min Temperature 48 °F 55 °F 33 °F (2002)
Degree Days  
Heating Degree Days 4    
Growing Degree Days 10 (Base 50)    
Moisture  
Dew Point 55 °F    
Average Humidity 76    
Maximum Humidity 100    
Minimum Humidity 53    
Precipitation  
Precipitation 0.00 in - - ()
Sea Level Pressure  
Sea Level Pressure 30.23 in    
Wind  
Wind Speed 4 mph (ESE)    
Max Wind Speed 14 mph    
Max Gust Speed 20 mph    
Visibility 10 miles    
Events      
Averages and records for this station are not official NWS values.
T = Trace of Precipitation, MM = Missing Value Source: NWS Daily Summary

Daily Weather History Graph

Daily Weather History Graph

Search for Another Location

Airport or City:

Astronomy

Aug. 25, 2019 Rise Set
Actual Time 6:47 AM EDT 8:22 PM EDT
Civil Twilight 6:17 AM EDT 8:53 PM EDT
Nautical Twilight 5:40 AM EDT 9:30 PM EDT
Astronomical Twilight 5:00 AM EDT 10:09 PM EDT
Moon 1:14 AM EDT (8/25) 4:50 PM EDT (8/25)
Length of Visible Light 14h 35m
Length of Day
13h 34m
Waning Crescent, 29% of the Moon is Illuminated
Aug 25
Waning Crescent
Aug 30
New
Sep 5
First Quarter
Sep 14
Full
Sep 21
Last Quarter

Hourly Weather History & Observations

Time (EDT) Temp. Dew Point Humidity Pressure Visibility Wind Dir Wind Speed Gust Speed Precip Events Conditions
12:15 AM 51.4 °F 50.2 °F 95% 30.29 in 10.0 mi NW 3.5 mph - N/A   Clear
12:16 AM 51.3 °F 50.0 °F 95% 30.29 in 10.0 mi NW 3.5 mph - N/A   Clear
12:35 AM 50.4 °F 50.2 °F 99% 30.28 in 10.0 mi NW 3.5 mph - N/A   Clear
12:59 AM 50.5 °F 50.5 °F 100% 30.28 in 10.0 mi Calm Calm - N/A   Clear
1:17 AM 51.1 °F 51.1 °F 100% 30.28 in 10.0 mi Calm Calm - N/A   Clear
1:35 AM 50.9 °F 50.4 °F 98% 30.28 in 10.0 mi Calm Calm - N/A   Clear
1:36 AM 50.7 °F 50.2 °F 98% 30.28 in 10.0 mi Calm Calm - N/A   Clear
1:55 AM 50.0 °F 50.0 °F 100% 30.28 in 10.0 mi NW 3.5 mph - N/A   Clear
2:15 AM 50.2 °F 50.2 °F 100% 30.28 in 10.0 mi Calm Calm - N/A   Clear
2:37 AM 50.0 °F 50.0 °F 100% 30.28 in 10.0 mi Calm Calm - N/A   Clear
2:56 AM 50.0 °F 50.0 °F 100% 30.28 in 10.0 mi Calm Calm - N/A   Clear
3:15 AM 49.6 °F 49.6 °F 100% 30.27 in 10.0 mi Calm Calm - N/A   Clear
3:16 AM 49.6 °F 49.6 °F 100% 30.27 in 10.0 mi Calm Calm - N/A   Clear
3:35 AM 50.0 °F 50.0 °F 100% 30.27 in 10.0 mi Calm Calm - N/A   Clear
3:59 AM 49.1 °F 49.1 °F 100% 30.27 in 10.0 mi Calm Calm - N/A   Clear
4:17 AM 48.9 °F 48.9 °F 100% 30.27 in 10.0 mi Calm Calm - N/A   Clear
4:35 AM 48.2 °F 48.2 °F 100% 30.27 in 10.0 mi Calm Calm - N/A   Clear
4:36 AM 48.2 °F 48.2 °F 100% 30.27 in 10.0 mi Calm Calm - N/A   Clear
4:55 AM 48.7 °F 48.7 °F 100% 30.27 in 10.0 mi NNW 3.5 mph - N/A   Clear
5:15 AM 49.3 °F 49.3 °F 100% 30.27 in 10.0 mi Calm Calm - N/A   Clear
5:38 AM 49.5 °F 49.5 °F 100% 30.27 in 10.0 mi Calm Calm - N/A   Clear
5:56 AM 49.5 °F 49.5 °F 100% 30.27 in 10.0 mi Calm Calm - N/A   Clear
6:15 AM 49.1 °F 49.1 °F 100% 30.27 in 10.0 mi Calm Calm - N/A   Clear
6:35 AM 48.6 °F 48.6 °F 100% 30.27 in 10.0 mi Calm Calm - N/A   Clear
6:59 AM 49.1 °F 49.1 °F 100% 30.28 in 10.0 mi Calm Calm - N/A   Clear
7:17 AM 48.9 °F 48.9 °F 100% 30.28 in 10.0 mi Calm Calm - N/A   Clear
7:35 AM 50.7 °F 50.7 °F 100% 30.28 in 10.0 mi Calm Calm - N/A   Clear
7:55 AM 52.3 °F 52.3 °F 100% 30.28 in 10.0 mi Calm Calm - N/A   Clear
8:15 AM 54.7 °F 54.7 °F 100% 30.27 in 10.0 mi Calm Calm - N/A   Clear
8:20 AM 55.4 °F 55.4 °F 100% 30.28 in 10.0 mi Calm Calm - N/A   Clear
8:38 AM 58.1 °F 56.7 °F 95% 30.28 in 10.0 mi Calm Calm - N/A   Clear
8:56 AM 61.3 °F 57.9 °F 89% 30.28 in 10.0 mi Calm Calm - N/A   Clear
9:15 AM 65.7 °F 59.9 °F 82% 30.28 in 10.0 mi Calm Calm - N/A   Clear
9:35 AM 69.3 °F 59.2 °F 70% 30.28 in 10.0 mi SSE 3.5 mph - N/A   Clear
9:36 AM 69.3 °F 59.0 °F 70% 30.28 in 10.0 mi SSE 3.5 mph - N/A   Clear
9:59 AM 71.6 °F 56.7 °F 59% 30.28 in 10.0 mi SE 9.2 mph - N/A   Clear
10:17 AM 72.3 °F 55.4 °F 55% 30.28 in 10.0 mi SSE 9.2 mph - N/A   Clear
10:35 AM 72.9 °F 56.1 °F 56% 30.28 in 10.0 mi SE 6.9 mph - N/A   Clear
10:36 AM 73.0 °F 55.9 °F 55% 30.28 in 10.0 mi SE 6.9 mph - N/A   Clear
10:55 AM 73.4 °F 55.9 °F 54% 30.28 in 10.0 mi SE 6.9 mph - N/A   Clear
10:56 AM 73.4 °F 55.9 °F 54% 30.28 in 10.0 mi SE 8.1 mph - N/A   Clear
11:15 AM 73.0 °F 55.9 °F 55% 30.28 in 10.0 mi SE 9.2 mph - N/A   Clear
11:20 AM 73.2 °F 55.0 °F 53% 30.28 in 10.0 mi SE 8.1 mph - N/A   Clear
11:37 AM 73.6 °F 56.5 °F 55% 30.28 in 10.0 mi ESE 8.1 mph - N/A   Clear
11:56 AM 72.9 °F 56.8 °F 57% 30.27 in 10.0 mi SE 9.2 mph - N/A   Clear
12:15 PM 73.4 °F 57.2 °F 57% 30.26 in 10.0 mi ESE 9.2 mph 16.1 mph N/A   Scattered Clouds
12:16 PM 73.4 °F 57.0 °F 56% 30.26 in 10.0 mi East 11.5 mph 16.1 mph N/A   Scattered Clouds
12:35 PM 73.4 °F 57.2 °F 57% 30.26 in 10.0 mi East 11.5 mph 16.1 mph N/A   Clear
12:36 PM 73.4 °F 57.2 °F 57% 30.26 in 10.0 mi East 11.5 mph 16.1 mph N/A   Clear
12:59 PM 73.6 °F 59.9 °F 62% 30.25 in 10.0 mi SE 11.5 mph 19.6 mph N/A   Scattered Clouds
1:17 PM 73.0 °F 58.3 °F 60% 30.25 in 10.0 mi ESE 13.8 mph - N/A   Mostly Cloudy
1:35 PM 73.0 °F 56.3 °F 56% 30.25 in 10.0 mi ESE 11.5 mph 17.3 mph N/A   Scattered Clouds
1:36 PM 73.0 °F 56.5 °F 56% 30.25 in 10.0 mi ESE 11.5 mph 17.3 mph N/A   Scattered Clouds
1:55 PM 73.0 °F 56.1 °F 55% 30.25 in 10.0 mi ESE 11.5 mph 16.1 mph N/A   Scattered Clouds
1:56 PM 73.0 °F 56.1 °F 55% 30.25 in 10.0 mi ESE 11.5 mph 16.1 mph N/A   Clear
2:15 PM 72.7 °F 56.7 °F 57% 30.24 in 10.0 mi ESE 6.9 mph - N/A   Clear
2:38 PM 73.0 °F 56.7 °F 56% 30.23 in 10.0 mi SE 10.4 mph - N/A   Clear
2:56 PM 72.7 °F 57.6 °F 59% 30.23 in 10.0 mi East 10.4 mph - N/A   Clear
3:15 PM 72.1 °F 56.8 °F 58% 30.23 in 10.0 mi ESE 8.1 mph - N/A   Clear
3:16 PM 72.3 °F 57.0 °F 59% 30.23 in 10.0 mi ESE 10.4 mph - N/A   Clear
3:35 PM 72.5 °F 56.5 °F 57% 30.23 in 10.0 mi East 12.7 mph - N/A   Scattered Clouds
3:59 PM 72.1 °F 56.3 °F 57% 30.21 in 10.0 mi East 5.8 mph 16.1 mph N/A   Scattered Clouds
4:17 PM 72.0 °F 56.8 °F 59% 30.21 in 10.0 mi ESE 8.1 mph - N/A   Clear
4:35 PM 72.3 °F 57.4 °F 59% 30.20 in 10.0 mi ESE 9.2 mph - N/A   Scattered Clouds
4:36 PM 72.5 °F 57.4 °F 59% 30.20 in 10.0 mi ESE 10.4 mph - N/A   Scattered Clouds
4:55 PM 71.6 °F 57.0 °F 60% 30.20 in 10.0 mi ESE 6.9 mph - N/A   Scattered Clouds
5:15 PM 70.3 °F 57.0 °F 63% 30.19 in 10.0 mi East 8.1 mph - N/A   Scattered Clouds
5:38 PM 70.7 °F 57.4 °F 63% 30.19 in 10.0 mi East 10.4 mph - N/A   Scattered Clouds
5:56 PM 70.3 °F 57.4 °F 63% 30.18 in 10.0 mi East 9.2 mph - N/A   Clear
6:15 PM 70.5 °F 57.9 °F 64% 30.17 in 10.0 mi East 9.2 mph - N/A   Clear
6:35 PM 70.2 °F 58.1 °F 65% 30.17 in 10.0 mi East 10.4 mph - N/A   Clear
6:59 PM 69.6 °F 58.5 °F 68% 30.16 in 10.0 mi East 6.9 mph - N/A   Clear
7:17 PM 69.1 °F 58.6 °F 69% 30.16 in 10.0 mi East 9.2 mph - N/A   Clear
7:35 PM 68.5 °F 58.8 °F 71% 30.15 in 10.0 mi East 5.8 mph - N/A   Clear
7:55 PM 68.5 °F 59.0 °F 72% 30.15 in 10.0 mi East 6.9 mph - N/A   Clear
8:15 PM 68.4 °F 59.0 °F 72% 30.15 in 10.0 mi East 6.9 mph - N/A   Clear
8:20 PM 68.2 °F 59.0 °F 72% 30.14 in 10.0 mi East 9.2 mph - N/A   Clear
8:38 PM 68.2 °F 59.0 °F 72% 30.14 in 10.0 mi East 10.4 mph - N/A   Clear
8:56 PM 68.2 °F 59.2 °F 73% 30.14 in 10.0 mi East 9.2 mph - N/A   Clear
9:15 PM 68.0 °F 59.0 °F 73% 30.14 in 10.0 mi ESE 8.1 mph - N/A   Clear
9:16 PM 68.2 °F 59.0 °F 72% 30.14 in 10.0 mi ESE 8.1 mph - N/A   Clear
9:35 PM 68.0 °F 59.4 °F 74% 30.15 in 10.0 mi ESE 6.9 mph - N/A   Clear
9:36 PM 68.0 °F 59.4 °F 74% 30.15 in 10.0 mi ESE 6.9 mph - N/A   Clear
9:58 PM 68.0 °F 59.4 °F 74% 30.15 in 10.0 mi ESE 5.8 mph - N/A   Clear
10:17 PM 67.8 °F 59.9 °F 76% 30.15 in 10.0 mi ESE 6.9 mph - N/A   Clear
10:35 PM 67.6 °F 59.9 °F 76% 30.15 in 10.0 mi ESE 5.8 mph - N/A   Clear
10:55 PM 67.6 °F 60.1 °F 77% 30.15 in 10.0 mi ESE 5.8 mph - N/A   Clear
10:56 PM 67.5 °F 59.9 °F 77% 30.15 in 10.0 mi ESE 5.8 mph - N/A   Clear
11:15 PM 67.5 °F 59.7 °F 76% 30.15 in 10.0 mi ESE 4.6 mph - N/A   Clear
11:38 PM 67.5 °F 60.1 °F 77% 30.15 in 10.0 mi ESE 5.8 mph - N/A   Clear
11:56 PM 68.0 °F 60.3 °F 76% 30.14 in 10.0 mi SE 4.6 mph - N/A   Clear